White Meadow Lake Festival 5k — Results

Rockaway, New Jersey, United States

1st Place

Matthew Morena

5k Pre-Registration

18:15

2nd Place

Domenick Wallace

5k Pre-Registration

18:39

3rd Place

John Dennehy

5k Pre-Registration

19:06

# Bib Name Gender Gender Rank Age Group AG Rank Finish Time Pace
101 167 Erin Silkowski Female 34:44 11:11 /mi
102 464 B. Lavery Female 34:53 11:14 /mi
103 497 Sandra Nestor-Daingerfield Female 34:56 11:15 /mi
104 219 Kristen Mathieson Female 35:03 11:17 /mi
105 446 Thomas Hall Male 35:07 11:18 /mi
106 496 R. Nelson Female 35:24 11:24 /mi
107 436 Mary Finckenor Female 36:08 11:38 /mi
108 457 Glen Katz Male 36:23 11:42 /mi
109 428 James Del Greco Male 36:39 11:48 /mi
110 213 Melanie Beck Female 37:08 11:57 /mi
111 209 Danielle Kopp Female 37:14 11:59 /mi
112 483 Robert Mc Gill Male 37:41 12:08 /mi
113 418 Kelly Crilly Female 37:45 12:09 /mi
114 200 Mike Siersma Male 38:15 12:19 /mi
115 217 Lacey Siersma Female 38:16 12:19 /mi
116 495 Misty Nelson Female 39:23 12:40 /mi
117 185 Chris Thomas Male 39:49 12:49 /mi
118 208 L. Heath Male 40:48 13:08 /mi
119 470 Jonathan MacDonald Male 41:28 13:21 /mi
120 156 Kevin Rockwell Male 41:33 13:22 /mi
121 475 Coreen Manicone Female 41:44 13:26 /mi
122 186 B. Thompson Male 42:01 13:31 /mi
123 187 David Thompson Male 42:03 13:32 /mi
124 494 Christina Nascimento Female 42:07 13:33 /mi
125 184 Laura Tempesta Female 42:08 13:34 /mi
126 194 Samantha Weiner Female 42:10 13:34 /mi
127 195 Jeanne Wilson Female 42:13 13:35 /mi
128 201 Dewey Wigod Male 42:30 13:41 /mi
129 162 A. Sahiwal Female 42:43 13:45 /mi
130 469 Adam MacDonald Male 43:48 14:06 /mi
131 460 Christine Kleinwaks Female 44:49 14:26 /mi
132 482 Shannon Matlaga Female 45:14 14:34 /mi
133 175 Alexis Somers Female 46:44 15:03 /mi
134 177 Michael Somers Male 46:46 15:03 /mi
135 220 Liany Villafance Female 49:02 15:47 /mi
136 435 Randi Farrell Female 49:12 15:50 /mi
137 415 Rachel Carroll Female 49:13 15:50 /mi
138 499 Mary Parra Female 49:19 15:52 /mi
139 205 Ranjitha Vullanki Female 55:26 17:51 /mi
140 204 Pavan Kolapalli Male 55:26 17:51 /mi
141 481 Pilar Martis Female 55:40 17:55 /mi
142 190 Jasmine Vargas Female 57:19 18:27 /mi
143 445 Carl Grande Male 57:19 18:27 /mi
144 424 Mary Daley Female 59:07 19:02 /mi
145 152 Gretel Raibeck Female 59:28 19:09 /mi
146 448 Sarah Hessler Female 59:29 19:09 /mi
147 480 Tomasina Marone Female 59:30 19:09 /mi
148 477 Wendi Marak Female 1:00:50 19:35 /mi

Showing 101–148 of 148 results